KG4K-13 Weather Reports


time (UTC)temp
C
wind
direction
speed
KPH
gust
KPH
rain 1hr
cm
rain 24hr
cm
rain mn
cm
humidity
%
barometer
mb
20260504202537 22 212 1.6 6.4 0.00 0.00 0.00 51 1011.3
20260504201516 22 213 1.6 11.3 0.00 0.00 0.00 51 1011.3
20260504200537 24 228 1.6 4.8 0.00 0.00 0.00 50 1011.5
20260504195536 24 210 1.6 4.8 0.00 0.00 0.00 46 1011.6
20260504194517 23 24 1.6 8.0 0.00 0.00 0.00 46 1011.7
20260504193517 23 183 1.6 9.7 0.00 0.00 0.00 47 1011.9
20260504192518 23 301 1.6 4.8 0.00 0.00 0.00 48 1012.1
20260504191518 23 169 1.6 8.0 0.00 0.00 0.00 45 1012.2
20260504190558 23 339 1.6 11.3 0.00 0.00 0.00 47 1012.3
20260504185518 23 355 1.6 6.4 0.00 0.00 0.00 46 1012.5
20260504184518 22 262 1.6 6.4 0.00 0.00 0.00 49 1012.7
20260504183516 23 178 1.6 8.0 0.00 0.00 0.00 47 1012.8
20260504182515 22 319 1.6 6.4 0.00 0.00 0.00 48 1012.9
20260504181516 22 198 3.2 8.0 0.00 0.00 0.00 47 1013.1
20260504180516 22 179 1.6 6.4 0.00 0.00 0.00 45 1013.1
20260504175516 22 188 1.6 8.0 0.00 0.00 0.00 45 1013.3
20260504174516 22 285 1.6 6.4 0.00 0.00 0.00 44 1013.4
20260504173516 22 243 1.6 4.8 0.00 0.00 0.00 47 1013.6
20260504172516 22 8 1.6 6.4 0.00 0.00 0.00 46 1013.7
20260504171517 22 354 1.6 4.8 0.00 0.00 0.00 47 1013.6
20260504170517 21 339 1.6 4.8 0.00 0.00 0.00 50 1013.8
20260504150516 19 269 1.6 4.8 0.00 0.00 0.00 55 1015.0
20260504140517 17 13 0.0 3.2 0.00 0.00 0.00 48 1015.1
20260504130518 15 215 1.6 6.4 0.00 0.00 0.00 51 1015.3
20260504110517 11 9 0.0 3.2 0.00 0.00 0.00 62 1015.8
20260504100518 12 219 1.6 6.4 0.00 0.00 0.00 63 1015.9
20260504081519 12 234 0.0 3.2 0.00 0.00 0.00 64 1016.0
20260504080520 12 247 0.0 1.6 0.00 0.00 0.00 62 1016.0
20260504050517 9 297 0.0 1.6 0.00 0.00 0.00 71 1016.2
20260504045537 9 299 0.0 1.6 0.00 0.00 0.00 71 1016.2
20260504044518 9 29 0.0 1.6 0.00 0.00 0.00 70 1016.3
20260504043518 8 32 0.0 1.6 0.00 0.00 0.00 71 1016.2
20260504042518 8 343 0.0 1.6 0.00 0.00 0.00 73 1016.3
20260504041518 8 310 0.0 1.6 0.00 0.00 0.00 77 1016.3
20260504040515 8 301 0.0 1.6 0.00 0.00 0.00 84 1016.2
20260504035516 7 332 0.0 1.6 0.00 0.00 0.00 81 1016.2
20260504034516 7 296 0.0 1.6 0.00 0.00 0.00 84 1016.1
20260504033516 8 308 0.0 1.6 0.00 0.00 0.00 83 1016.1
20260504032516 8 309 1.6 3.2 0.00 0.00 0.00 83 1015.9
20260504031516 8 290 0.0 1.6 0.00 0.00 0.00 82 1015.8
20260504030516 8 9 0.0 1.6 0.00 0.00 0.00 82 1015.8
20260504025516 8 295 0.0 3.2 0.00 0.00 0.00 81 1015.8
20260504024536 8 318 0.0 1.6 0.00 0.00 0.00 80 1015.8
20260504023517 8 340 0.0 1.6 0.00 0.00 0.00 79 1015.8
20260504022517 8 307 0.0 1.6 0.00 0.00 0.00 78 1015.8
20260504021517 9 313 0.0 1.6 0.00 0.00 0.00 77 1015.8
20260504020517 9 312 0.0 1.6 0.00 0.00 0.00 76 1015.7
20260504015518 10 293 0.0 1.6 0.00 0.00 0.00 74 1015.7
20260504014518 10 292 0.0 1.6 0.00 0.00 0.00 72 1015.7
20260504013518 10 298 1.6 3.2 0.00 0.00 0.00 72 1015.6
20260504012518 10 292 1.6 3.2 0.00 0.00 0.00 71 1015.5
20260504011515 11 295 0.0 3.2 0.00 0.00 0.00 67 1015.4
20260504010518 11 294 0.0 1.6 0.00 0.00 0.00 61 1015.4
20260504005515 11 277 0.0 1.6 0.00 0.00 0.00 60 1015.4
20260504004515 12 288 0.0 1.6 0.00 0.00 0.00 60 1015.3
20260504003516 13 259 0.0 1.6 0.00 0.00 0.00 53 1015.2
20260504002516 13 291 0.0 1.6 0.00 0.00 0.00 47 1015.0
20260504001516 14 288 0.0 1.6 0.00 0.00 0.00 42 1014.9
20260504000516 15 284 0.0 1.6 0.00 0.00 0.00 41 1014.9
20260503235516 15 263 0.0 1.6 0.00 0.00 0.00 39 1014.8
20260503234516 15 301 1.6 3.2 0.00 0.00 0.00 38 1014.6
20260503233517 16 310 3.2 4.8 0.00 0.00 0.00 38 1014.6
20260503232517 16 306 3.2 6.4 0.00 0.00 0.00 36 1014.5
20260503231517 17 318 3.2 9.7 0.00 0.00 0.00 34 1014.5
20260503230518 17 310 3.2 6.4 0.00 0.00 0.00 35 1014.5
20260503225538 17 315 6.4 11.3 0.00 0.00 0.00 34 1014.5
20260503224518 17 313 6.4 11.3 0.00 0.00 0.00 34 1014.6
20260503223535 17 314 4.8 9.7 0.00 0.00 0.00 34 1014.6
20260503222515 17 304 4.8 9.7 0.00 0.00 0.00 33 1014.4
20260503221535 17 317 4.8 9.7 0.00 0.00 0.00 33 1014.6
20260503220516 17 312 4.8 12.9 0.00 0.00 0.00 34 1014.6
20260503215515 17 319 4.8 8.0 0.00 0.00 0.00 34 1014.6
20260503214516 17 307 6.4 11.3 0.00 0.00 0.00 34 1014.6
20260503213516 16 316 6.4 11.3 0.00 0.00 0.00 35 1014.5
20260503212516 16 310 8.0 14.5 0.00 0.00 0.00 35 1014.6
20260503211516 16 312 6.4 11.3 0.00 0.00 0.00 37 1014.5
20260503210516 16 313 8.0 14.5 0.00 0.00 0.00 36 1014.5
20260503205557 16 299 8.0 16.1 0.00 0.00 0.00 36 1014.6
20260503204517 16 320 6.4 16.1 0.00 0.00 0.00 37 1014.7
20260503203517 16 306 4.8 9.7 0.00 0.00 0.00 38 1014.8